Location: ?????
(42.2640°N, 43.4211°E)
Time: 14:07:48
(UTC+00:00)

ADEOS Rocket - Pass Details

Date: 07 August 2020
Orbit: 858 x 1307 km, 98.7° (Epoch: 19 September)

Event Time Altitude Azimuth Distance (km) Brightness Sun altitude
Rises 01:12:43 0° 151° (SSE) 4,124 6.2 -9.5°
Reaches altitude 10° 01:15:19 10° 148° (SSE) 3,207 5.7 -9.1°
Maximum altitude 01:22:41 62° 70° (ENE) 1,439 4.3 -7.9°
Drops below altitude 10° 01:30:20 10° 353° (N) 3,334 6.1 -6.7°
Sets 01:33:05 0° 350° (N) 4,298 6.6 -6.2°
